Charlotte, MI

5:42 AM EST on February 22, 2017 (GMT -0500)
Charlotte

Weather History for KFPK - March, 2014

Change the Weather History Date:

Monday, March 10, 2014

  Actual Average (KLAN) Record (KLAN)
Temperature  
Mean Temperature 42 °F -  
Max Temperature 50 °F 41 °F 67 °F (1878)
Min Temperature 35 °F 22 °F -15 °F (1869)
Degree Days  
Heating Degree Days 22    
Moisture  
Dew Point 31 °F    
Average Humidity 67    
Maximum Humidity 78    
Minimum Humidity 49    
Precipitation  
Precipitation 0.00 in - - ()
Sea Level Pressure  
Sea Level Pressure 29.64 in    
Wind  
Wind Speed 11 mph (SW)    
Max Wind Speed 15 mph    
Max Gust Speed 22 mph    
Visibility 8 miles    
Events      
Averages and records for this station are not official NWS values.
T = Trace of Precipitation, MM = Missing Value Source: NWS Daily Summary

Daily Weather History Graph

Daily Weather History Graph

Search for Another Location

Airport or City:

Trip Planner

Search our weather history database for the weather conditions in past years. The results will help you decide how hot, cold, wet, or windy it might be!

Date:

Astronomy

Mar. 10, 2014 Rise Set
Actual Time 7:59 AM EDT 7:39 PM EDT
Civil Twilight 7:31 AM EDT 8:07 PM EDT
Nautical Twilight 6:59 AM EDT 8:40 PM EDT
Astronomical Twilight 6:26 AM EDT 9:13 PM EDT
Moon 2:17 PM EDT (3/10) 4:16 AM EDT (3/10)
Length of Visible Light 12h 36m
Length of Day
11h 40m
Waxing Gibbous, 70% of the Moon is Illuminated
Mar 10
Waxing Gibbous
Mar 16
Full
Mar 23
Last Quarter
Mar 30
New
Apr 7
First Quarter

Hourly Weather History & Observations

Time (EDT) Temp. Windchill Dew Point Humidity Pressure Visibility Wind Dir Wind Speed Gust Speed Precip Events Conditions
12:15 AM 35.6 °F 26.6 °F 29.1 °F 77% 29.79 in 7.0 mi SW 13.8 mph - N/A   Clear
12:35 AM 35.6 °F 26.2 °F 29.3 °F 78% 29.78 in 7.0 mi SW 15.0 mph 19.6 mph N/A   Clear
12:55 AM 35.8 °F 27.3 °F 29.3 °F 77% 29.78 in 7.0 mi SSW 12.7 mph 17.3 mph N/A   Clear
1:15 AM 35.8 °F 27.3 °F 29.5 °F 78% 29.77 in 7.0 mi SSW 12.7 mph 17.3 mph N/A   Clear
1:35 AM 35.8 °F 26.9 °F 29.5 °F 78% 29.76 in 7.0 mi SW 13.8 mph 18.4 mph N/A   Clear
1:55 AM 35.6 °F 26.6 °F 29.3 °F 78% 29.76 in 7.0 mi SSW 13.8 mph - N/A   Clear
2:15 AM 35.6 °F 27.5 °F 29.3 °F 78% 29.75 in 7.0 mi SW 11.5 mph - N/A   Clear
2:35 AM 35.8 °F 28.3 °F 29.3 °F 77% 29.74 in 7.0 mi SSW 10.4 mph - N/A   Clear
2:55 AM 36.0 °F 29.0 °F 29.3 °F 77% 29.74 in 7.0 mi SSW 9.2 mph - N/A   Clear
3:15 AM 35.8 °F 29.4 °F 29.3 °F 77% 29.72 in 7.0 mi SSW 8.1 mph - N/A   Clear
3:35 AM 36.0 °F 29.0 °F 29.7 °F 78% 29.72 in 7.0 mi SW 9.2 mph - N/A   Scattered Clouds
3:55 AM 36.1 °F 29.3 °F 29.5 °F 77% 29.70 in 7.0 mi SW 9.2 mph - N/A   Scattered Clouds
4:15 AM 36.0 °F 29.0 °F 29.5 °F 77% 29.70 in 7.0 mi SW 9.2 mph - N/A   Scattered Clouds
4:35 AM 36.3 °F 28.9 °F 29.7 °F 77% 29.69 in 7.0 mi SW 10.4 mph 16.1 mph N/A   Clear
4:55 AM 36.7 °F 29.4 °F 30.0 °F 77% 29.68 in 7.0 mi SSW 10.4 mph - N/A   Clear
5:15 AM 36.7 °F 29.4 °F 30.0 °F 77% 29.68 in 7.0 mi SW 10.4 mph 16.1 mph N/A   Clear
5:35 AM 36.7 °F 30.5 °F 30.0 °F 77% 29.68 in 7.0 mi SW 8.1 mph - N/A   Clear
5:55 AM 36.9 °F 30.1 °F 30.0 °F 76% 29.68 in 7.0 mi SSW 9.2 mph - N/A   Mostly Cloudy
6:15 AM 36.9 °F 30.1 °F 30.2 °F 77% 29.68 in 7.0 mi SSW 9.2 mph - N/A   Scattered Clouds
6:35 AM 37.4 °F 30.8 °F 30.2 °F 75% 29.68 in 7.0 mi SW 9.2 mph - N/A   Scattered Clouds
6:55 AM 37.4 °F 30.8 °F 30.2 °F 75% 29.67 in 7.0 mi SW 9.2 mph - N/A   Scattered Clouds
7:15 AM 37.4 °F 31.4 °F 30.4 °F 76% 29.67 in 7.0 mi SW 8.1 mph - N/A   Clear
7:35 AM 37.4 °F 30.8 °F 30.6 °F 76% 29.66 in 7.0 mi SSW 9.2 mph - N/A   Clear
7:55 AM 37.4 °F 32.1 °F 30.6 °F 76% 29.67 in 5.0 mi SW 6.9 mph - N/A   Haze
8:15 AM 37.4 °F 31.4 °F 30.7 °F 77% 29.67 in 5.0 mi SW 8.1 mph - N/A   Haze
8:35 AM 37.6 °F 33.1 °F 30.7 °F 76% 29.66 in 5.0 mi SSW 5.8 mph - N/A   Haze
8:55 AM 37.8 °F 31.8 °F 30.7 °F 76% 29.66 in 5.0 mi SSW 8.1 mph - N/A   Haze
9:15 AM 37.8 °F 30.7 °F 30.9 °F 76% 29.66 in 5.0 mi SW 10.4 mph - N/A   Haze
9:35 AM 38.1 °F 32.3 °F 30.9 °F 75% 29.66 in 5.0 mi SW 8.1 mph - N/A   Haze
9:55 AM 38.7 °F 32.9 °F 31.1 °F 74% 29.66 in 5.0 mi SW 8.1 mph - N/A   Haze
10:15 AM 39.6 °F 34.0 °F 31.1 °F 72% 29.65 in 5.0 mi SW 8.1 mph - N/A   Haze
10:35 AM 41.0 °F 34.3 °F 31.3 °F 68% 29.65 in 7.0 mi SW 11.5 mph 17.3 mph N/A   Overcast
10:55 AM 41.7 °F 34.8 °F 31.5 °F 67% 29.64 in 7.0 mi SW 12.7 mph 18.4 mph N/A   Overcast
11:15 AM 42.6 °F 35.9 °F 31.6 °F 65% 29.64 in 7.0 mi WSW 12.7 mph 18.4 mph N/A   Overcast
11:35 AM 43.5 °F 37.9 °F 31.8 °F 63% 29.64 in 7.0 mi SW 10.4 mph - N/A   Overcast
11:55 AM 44.2 °F 38.4 °F 31.8 °F 62% 29.63 in 7.0 mi SW 11.5 mph - N/A   Scattered Clouds
12:15 PM 44.8 °F 39.4 °F 32.0 °F 61% 29.62 in 10.0 mi SW 10.4 mph - N/A   Clear
12:35 PM 45.7 °F 41.0 °F 32.0 °F 59% 29.62 in 7.0 mi SW 9.2 mph - N/A   Clear
12:55 PM 46.0 °F 41.9 °F 32.0 °F 58% 29.61 in 7.0 mi SSW 8.1 mph 11.5 mph N/A   Clear
1:15 PM 46.6 °F - 31.8 °F 56% 29.61 in 10.0 mi SSW 12.7 mph - N/A   Clear
1:35 PM 46.8 °F - 31.8 °F 56% 29.59 in 10.0 mi SSW 13.8 mph 19.6 mph N/A   Clear
1:55 PM 47.5 °F - 32.0 °F 55% 29.58 in 10.0 mi SW 13.8 mph 17.3 mph N/A   Clear
2:15 PM 47.3 °F - 32.0 °F 55% 29.58 in 10.0 mi SW 13.8 mph 21.9 mph N/A   Clear
2:35 PM 47.7 °F - 32.0 °F 55% 29.58 in 10.0 mi SW 15.0 mph 21.9 mph N/A   Clear
2:55 PM 47.7 °F - 32.0 °F 55% 29.57 in 10.0 mi SSW 12.7 mph 19.6 mph N/A   Clear
3:15 PM 48.0 °F - 32.0 °F 54% 29.56 in 10.0 mi SW 13.8 mph 19.6 mph N/A   Clear
3:35 PM 49.3 °F - 32.0 °F 51% 29.56 in 10.0 mi SW 9.2 mph - N/A   Clear
3:55 PM 49.3 °F - 32.0 °F 51% 29.55 in 10.0 mi SW 13.8 mph 19.6 mph N/A   Clear
4:15 PM 49.3 °F - 32.0 °F 51% 29.56 in 10.0 mi SW 10.4 mph 21.9 mph N/A   Clear
4:35 PM 50.2 °F - 32.0 °F 50% 29.56 in 10.0 mi WSW 10.4 mph 17.3 mph N/A   Clear
4:55 PM 50.4 °F - 32.0 °F 49% 29.56 in 10.0 mi SW 11.5 mph 16.1 mph N/A   Clear
5:15 PM 48.9 °F - 32.0 °F 52% 29.54 in 10.0 mi SW 15.0 mph - N/A   Clear
5:35 PM 49.3 °F - 32.0 °F 51% 29.55 in 10.0 mi SW 12.7 mph 19.6 mph N/A   Clear
5:55 PM 49.5 °F - 32.0 °F 51% 29.55 in 10.0 mi SW 12.7 mph 18.4 mph N/A   Clear
6:15 PM 48.2 °F - 32.0 °F 54% 29.55 in 10.0 mi SSW 11.5 mph - N/A   Clear
6:35 PM 47.1 °F - 32.0 °F 56% 29.56 in 10.0 mi SSW 8.1 mph - N/A   Clear
6:55 PM 46.4 °F 42.4 °F 32.0 °F 57% 29.57 in 10.0 mi SW 8.1 mph - N/A   Clear
7:15 PM 45.5 °F 43.2 °F 32.2 °F 60% 29.58 in 10.0 mi SW 4.6 mph - N/A   Clear
7:35 PM 45.9 °F 42.3 °F 32.2 °F 59% 29.59 in 10.0 mi SW 6.9 mph - N/A   Clear
7:55 PM 45.1 °F 42.8 °F 32.2 °F 60% 29.60 in 10.0 mi SW 4.6 mph - N/A   Clear
8:15 PM 45.5 °F 41.8 °F 32.4 °F 60% 29.60 in 10.0 mi SW 6.9 mph - N/A   Clear
8:35 PM 43.7 °F 39.7 °F 32.2 °F 64% 29.61 in 10.0 mi SSW 6.9 mph - N/A   Clear
8:55 PM 44.1 °F 40.1 °F 32.2 °F 63% 29.61 in 10.0 mi SW 6.9 mph - N/A   Clear
9:15 PM 44.1 °F 40.8 °F 32.5 °F 64% 29.62 in 10.0 mi SW 5.8 mph - N/A   Clear
9:35 PM 43.0 °F 39.5 °F 32.5 °F 67% 29.62 in 10.0 mi SSW 5.8 mph - N/A   Clear
9:55 PM 42.1 °F 39.2 °F 32.5 °F 69% 29.62 in 10.0 mi SSW 4.6 mph - N/A   Clear
10:15 PM 42.1 °F 38.4 °F 32.9 °F 70% 29.62 in 10.0 mi SW 5.8 mph - N/A   Clear
10:35 PM 42.3 °F 38.6 °F 33.1 °F 70% 29.62 in 10.0 mi SW 5.8 mph - N/A   Clear
10:55 PM 41.9 °F 38.2 °F 33.3 °F 71% 29.62 in 10.0 mi SW 5.8 mph - N/A   Clear
11:15 PM 41.5 °F 38.6 °F 33.4 °F 73% 29.62 in 10.0 mi SW 4.6 mph - N/A   Clear
11:35 PM 40.6 °F 37.5 °F 33.3 °F 75% 29.62 in 10.0 mi SW 4.6 mph - N/A   Clear
11:55 PM 41.0 °F 38.0 °F 33.6 °F 75% 29.63 in 10.0 mi SW 4.6 mph - N/A   Clear